Regional Weather Roundup
Issued by NWS

Home | Current Version | Previous Version | Text Only | Print | Product List | Glossary On
Versions: 1 2 3 4 5 6 7 8 9 10 11 12 13 14 15 16 17 18 19 20 21 22 23 24 25 26 27 28 29 30 31 32 33 34 35 36 37 38 39 40 41 42 43 44 45 46 47 48 49 50
000
ASUS43 KOAX 191610
RWRNE

WEATHER ROUNDUP FOR NEBRASKA
NATIONAL WEATHER SERVICE OMAHA NE
1000 AM CST FRI DEC 19 2014

NOTES: SATELLITE DATA IS BEING USED TO AUGMENT CLOUD COVER ABOVE
       12000 FEET.
       "FAIR" INDICATES FEW OR NO CLOUDS BELOW 12,000 FEET WITH NO
       SIGNIFICANT WEATHER AND/OR OBSTRUCTIONS TO VISIBILITY.

  * THESE STATIONS DO NOT REPORT WEATHER SUCH AS RAIN...SNOW OR FOG.

NEZ001>004-019>022-054>056-191700-
NEBRASKA PANHANDLE

CITY           SKY/WX    TMP DP  RH WIND       PRES   REMARKS
SCOTTSBLUFF    SUNNY      8   5  87 CALM      30.06S
ALLIANCE       SUNNY     10   7  87 W5        30.03F WCI   2
CHADRON        SUNNY     22  16  78 W5        30.03F WCI  16
KIMBALL        SUNNY     30  19  63 W10       30.04S WCI  21
SIDNEY         SUNNY     26  15  63 W13       30.07S WCI  15
$$

NEZ057>060-069>072-079>082-191700-
SOUTHWEST NEBRASKA

CITY           SKY/WX    TMP DP  RH WIND       PRES   REMARKS
NORTH PLATTE   SUNNY     22  17  81 NW5       30.10S HAZE    WCI  16
IMPERIAL       SUNNY     23  19  85 W3        30.11R
LEXINGTON      FOG       25  24  96 SW3       30.12F VSB 1/4
MCCOOK         SUNNY     22  20  92 SW7       30.13S FOG     WCI  13
OGALLALA       SUNNY     19  16  88 W8        30.09S WCI   9
$$

NEZ005>010-023>029-035>040-094-191700-
NORTH CENTRAL NEBRASKA

CITY           SKY/WX    TMP DP  RH WIND       PRES   REMARKS
VALENTINE      SUNNY     23  19  85 SW9       30.03F WCI  13
AINSWORTH      MOSUNNY   19  15  87 S3        30.04S
BROKEN BOW     MOSUNNY   23  22  96 SW5       30.09S FOG     WCI  17
O`NEILL        FOG       26  26 100 S6        30.10S VSB 1/2 WCI  19
THEDFORD       SUNNY     23  22  93 CALM      30.07R
$$

NEZ041-046>049-061>064-073>077-083>087-191700-
SOUTH CENTRAL NEBRASKA

CITY           SKY/WX    TMP DP  RH WIND       PRES   REMARKS
GRAND ISLAND   CLOUDY    30  27  88 SW7       30.16S FOG     WCI  23
AURORA         CLOUDY    32  30  91 SW8       30.17R WCI  25
HASTINGS       CLOUDY    30  26  85 SW6       30.16R FOG     WCI  24
HEBRON         CLOUDY    31  28  89 S9        30.22R FOG     WCI  23
HOLDREGE       FOG       28  27  96 SW3       30.13S VSB 1/4
KEARNEY *      CLOUDY    27  25  93 SW9       30.15R VSB 1/4 WCI  17
YORK           CLOUDY    32  28  86 S7        30.19R WCI  26
$$

NEZ011>018-030>034-042>045-191700-
NORTHEAST NEBRASKA

CITY           SKY/WX    TMP DP  RH WIND       PRES   REMARKS
NORFOLK        CLOUDY    29  27  92 S12       30.15S WCI  19
ALBION         CLOUDY    28  26  91 S9        30.15S FOG     WCI  19
BLAIR          CLOUDY    32  30  92 S9        30.22R FOG     WCI  24
COLUMBUS *     CLOUDY    30  25  80 S8        30.19S WCI  23
FREMONT        CLOUDY    33  31  92 SE6       30.21R FOG     WCI  27
TEKAMAH        CLOUDY    32  29  88 SE10      30.23R FOG     WCI  24
WAYNE          CLOUDY    31  28  86 S10       30.17S WCI  23
$$

NEZ050>053-065>068-078-088>093-191700-
SOUTHEAST NEBRASKA

CITY           SKY/WX    TMP DP  RH WIND       PRES   REMARKS
LINCOLN        CLOUDY    32  28  85 S9        30.24R FOG     WCI  24
OMAHA EPPLEY   CLOUDY    32  29  88 S9        30.25R FOG     WCI  24
BEATRICE       CLOUDY    31  29  90 SE5       30.24R FOG     WCI  26
FALLS CITY     CLOUDY    29  26  89 SE6       30.27R WCI  23
NEBRASKA CITY  CLOUDY    31  30  97 S8        30.25R FOG     WCI  23
PLATTSMOUTH    CLOUDY    31  29  92 SE8       30.24R FOG     WCI  23
$$

NEZ044-045-051>053-067-191700-
OMAHA AREA

CITY           SKY/WX    TMP DP  RH WIND       PRES   REMARKS
OMAHA EPPLEY   CLOUDY    32  29  88 S9        30.25R FOG     WCI  24
BLAIR          CLOUDY    32  30  92 S9        30.22R FOG     WCI  24
FREMONT        CLOUDY    33  31  92 SE6       30.21R FOG     WCI  27
MILLARD        CLOUDY    32  29  89 SE7       30.24R FOG     WCI  26
OFFUTT AFB     CLOUDY    31  29  91 SE7       30.24R FOG     WCI  25
PLATTSMOUTH    CLOUDY    31  29  92 SE8       30.24R FOG     WCI  23
WAHOO          CLOUDY    32  29  89 S7        30.22R FOG     WCI  26
$$



USA.gov is the U.S. government's official web portal to all federal, state and local government web resources and services.